EW1881 Weather Reports


time (UTC)temp
F
wind
direction
speed
knots
gust
knots
rain 1hr
in
rain 24hr
in
rain mn
in
humidity
%
barometer
mb
20260505230052 84 0 2.6 7.8 0.00 0.00 0.00 27 1009.9
20260505224551 84 356 0.9 4.3 0.00 0.00 0.00 29 1009.9
20260505223052 84 57 0.9 6.1 0.00 0.00 0.00 29 1010.1
20260505221553 83 0 0.9 6.1 0.00 0.00 0.00 31 1010.1
20260505220050 83 331 0.9 4.3 0.00 0.00 0.00 32 1010.2
20260505214609 82 279 1.7 8.7 0.00 0.00 0.00 32 1010.3
20260505213100 82 315 0.0 6.1 0.00 0.00 0.00 33 1010.4
20260505211548 82 32 1.7 7.8 0.00 0.00 0.00 33 1010.4
20260505210056 82 0 0.9 5.2 0.00 0.00 0.00 34 1010.5
20260505204557 81 236 2.6 7.0 0.00 0.00 0.00 35 1010.6
20260505203055 80 280 1.7 6.1 0.00 0.00 0.00 35 1010.7
20260505201554 79 293 1.7 6.1 0.00 0.00 0.00 34 1010.8
20260505200101 78 342 0.9 5.2 0.00 0.00 0.00 38 1010.9
20260505194602 78 0 0.0 6.1 0.00 0.00 0.00 39 1011.1
20260505193051 77 301 0.9 7.0 0.00 0.00 0.00 41 1011.1
20260505191556 76 304 1.7 7.0 0.00 0.00 0.00 41 1011.1
20260505190052 76 295 1.7 7.8 0.00 0.00 0.00 42 1011.2
20260505184554 76 252 2.6 7.8 0.00 0.00 0.00 42 1011.2
20260505183051 75 307 1.7 7.8 0.00 0.00 0.00 43 1011.3
20260505181551 74 316 1.7 7.8 0.00 0.00 0.00 47 1011.2
20260505180107 73 277 2.6 7.0 0.00 0.00 0.00 46 1011.1
20260505174602 73 278 3.5 7.8 0.00 0.00 0.00 47 1011.2
20260505173049 72 295 1.7 9.6 0.00 0.00 0.00 49 1011.1
20260505171553 71 252 3.5 9.6 0.00 0.00 0.00 49 1011.0
20260505170048 71 243 1.7 6.1 0.00 0.00 0.00 50 1011.0
20260505164551 70 248 1.7 6.1 0.00 0.00 0.00 52 1011.0
20260505163056 68 264 2.6 6.1 0.00 0.00 0.00 54 1010.9
20260505161604 69 228 0.9 2.6 0.00 0.00 0.00 54 1010.9
20260505153049 66 307 0.0 0.0 0.00 0.00 0.00 60 1010.9
20260505151555 64 0 0.0 0.0 0.00 0.00 0.00 65 1010.9
20260505140108 51 0 0.0 0.0 0.00 0.00 0.00 81 1010.2
20260505124557 49 0 0.0 0.0 0.00 0.00 0.00 84 1009.4
20260505123102 49 0 0.0 0.9 0.00 0.00 0.00 84 1009.2
20260505121558 49 0 0.0 0.9 0.00 0.00 0.00 83 1009.0
20260505120053 49 0 0.0 0.9 0.00 0.00 0.00 83 1008.9
20260505114555 50 0 0.0 0.9 0.00 0.00 0.00 82 1008.7
20260505113058 51 0 0.0 0.0 0.00 0.00 0.00 81 1008.6
20260505111553 52 0 0.0 0.0 0.00 0.00 0.00 80 1008.5
20260505101555 54 0 0.0 0.9 0.00 0.00 0.00 78 1008.0
20260505100052 54 0 0.0 0.0 0.00 0.00 0.00 77 1007.8
20260505094551 54 0 0.0 0.9 0.00 0.00 0.00 77 1007.7
20260505093049 54 0 0.0 0.0 0.00 0.00 0.00 77 1007.7
20260505091614 54 0 0.0 1.7 0.00 0.00 0.00 76 1007.6
20260505090049 53 0 0.0 0.0 0.00 0.00 0.00 75 1007.6
20260505084550 54 0 0.0 0.9 0.00 0.00 0.00 74 1007.5
20260505083053 54 0 0.0 1.7 0.00 0.00 0.00 74 1007.5
20260505081558 55 77 0.0 0.0 0.00 0.00 0.00 72 1007.5
20260505074548 56 0 0.0 0.0 0.00 0.00 0.00 68 1007.3
20260505073052 56 0 0.0 0.0 0.00 0.00 0.00 68 1007.3
20260505071556 56 0 0.0 0.9 0.00 0.00 0.00 69 1007.0
20260505070053 56 0 0.0 0.9 0.00 0.00 0.00 69 1007.0
20260505064552 56 0 0.0 0.9 0.00 0.00 0.00 68 1006.6
20260505063114 57 0 0.0 1.7 0.00 0.00 0.00 68 1006.6
20260505061623 57 0 0.0 0.0 0.00 0.00 0.00 67 1006.6
20260505054603 59 0 0.0 1.7 0.00 0.00 0.00 62 1006.1
20260505053051 59 0 0.0 0.0 0.00 0.00 0.00 63 1006.1
20260505051611 60 0 0.0 0.9 0.00 0.00 0.00 62 1006.0
20260505041555 63 0 0.0 0.0 0.00 0.00 0.00 58 1005.7
20260505040054 64 0 0.0 0.0 0.00 0.00 0.00 58 1005.6
20260505034550 66 0 0.0 0.9 0.00 0.00 0.00 55 1005.4
20260505033055 68 0 0.0 2.6 0.00 0.00 0.00 52 1005.2
20260505031559 71 103 1.7 4.3 0.00 0.00 0.00 47 1005.1
20260505030052 75 0 0.0 0.9 0.00 0.00 0.00 41 1005.1
20260505024555 79 0 0.0 0.9 0.00 0.00 0.00 36 1005.1
20260505023054 81 0 0.0 1.7 0.00 0.00 0.00 35 1005.1
20260505021553 83 0 0.0 0.9 0.00 0.00 0.00 32 1005.1
20260505014553 83 0 0.0 5.2 0.00 0.00 0.00 27 1005.2
20260505013103 84 355 0.0 3.5 0.00 0.00 0.00 25 1005.4
20260505011553 84 270 0.9 6.1 0.00 0.00 0.00 23 1005.5
20260505010108 85 351 0.9 7.8 0.00 0.00 0.00 23 1005.6
20260505004552 85 337 0.9 6.1 0.00 0.00 0.00 23 1005.6
20260505003056 85 21 2.6 8.7 0.00 0.00 0.00 21 1005.6
20260505001549 85 355 0.9 8.7 0.00 0.00 0.00 21 1005.6
20260505000100 86 46 1.7 7.8 0.00 0.00 0.00 20 1005.7
20260504234553 87 305 0.9 7.0 0.00 0.00 0.00 20 1005.7
20260504233105 86 297 2.6 6.1 0.00 0.00 0.00 23 1005.7
20260504231551 86 32 2.6 7.0 0.00 0.00 0.00 22 1005.8